Location: Unspecified
(0.0000°N, 0.0000°E)
Time: 09:12:15
(UTC+00:00)

Vanguard 2 - Pass Details

Date: 21 December 2018
Orbit: 552 x 2939 km, 32.9° (Epoch: 17 January)

Event Time Altitude Azimuth Distance (km) Brightness Sun altitude
Rises 12:34:57 0° 227° (SW) 5,660 12.3 64.9°
Reaches altitude 10° 12:39:29 10° 222° (SW) 4,258 11.9 64.5°
Maximum altitude 12:49:33 48° 151° (SSE) 1,599 10.3 63.4°
Drops below altitude 10° 12:55:38 10° 78° (ENE) 2,611 10.2 62.7°
Sets 12:57:47 0° 71° (ENE) 3,340 10.6 62.4°
